Theta_e
311 310 311 309 309 310 311 312 312 312 312 312 312 313 312 313 313 312 310 310 309 310 310 310 309 311 308 308 308 307 306 306 303 305 306 309 311 311 311 311 311 311 310
311 310 310 311 311 311 310 310 311 309 310 309 310 311 311 312 313 311 310 309 309 308 309 309 308 307 310 310 307 309 307 307 304 303 306 306 307 310 309 309 308 308 309
312 311 311 310 311 311 311 311 311 311 310 308 308 308 310 312 312 312 310 310 310 310 309 309 308 309 308 307 308 307 306 305 305 302 302 304 305 307 307 308 308 309 305
312 312 310 311 311 312 312 312 312 312 311 309 307 309 309 310 310 310 310 310 310 309 309 309 308 308 308 307 306 306 307 305 305 303 302 303 304 307 305 302 302 304 303
310 312 312 313 313 311 311 312 313 313 313 311 307 308 308 306 303 305 308 309 309 309 310 309 310 307 305 306 304 305 305 303 301 301 300 300 300 301 301 301 301 302 302
310 311 313 313 311 311 310 312 314 314 313 311 307 307 307 304 299 298 301 309 309 308 307 307 307 307 306 304 305 305 306 304 302 301 300 300 302 304 305 300 299 298 297
309 311 311 310 308 308 310 310 312 313 313 310 308 307 308 308 297 297 299 309 307 307 307 306 304 303 305 301 301 303 304 305 304 305 303 303 303 304 303 301 300 299 298
309 310 310 308 305 308 309 308 311 312 311 309 307 308 309 307 297 296 298 308 307 307 306 306 304 303 302 299 301 302 304 305 307 304 305 305 305 304 303 302 301 301 301
308 310 307 307 306 305 305 307 308 309 308 307 308 307 308 309 297 295 299 307 306 306 305 305 303 302 296 295 300 301 302 303 303 303 301 299 298 298 299 300 296 295 295
308 307 308 307 306 305 307 307 309 310 307 307 308 309 304 309 297 295 298 304 305 303 306 305 298 299 294 294 299 301 298 299 299 301 303 302 301 302 299 299 298 294 294
307 309 309 309 310 310 311 312 312 310 309 309 308 309 310 308 307 296 295 304 303 303 302 302 303 295 294 293 293 301 298 297 299 301 299 300 301 299 299 299 299 297 294
308 309 309 311 310 310 311 312 311 311 309 308 308 307 308 310 304 300 294 295 298 304 303 303 303 294 294 294 296 293 293 295 301 300 298 296 297 297 299 298 299 299 303
309 309 310 310 311 312 312 311 309 310 308 307 305 305 305 306 307 298 297 297 296 302 305 301 295 295 294 297 297 295 295 299 298 296 296 295 294 295 297 297 298 300 300
309 309 310 309 310 312 310 309 308 307 306 306 306 305 305 306 306 307 306 306 302 303 304 304 302 298 297 300 301 301 300 299 297 294 293 293 293 294 294 295 295 297 297
309 309 309 308 309 309 310 309 308 310 306 305 306 306 305 304 304 296 296 302 303 301 297 304 303 302 300 300 301 301 299 300 294 293 292 291 291 292 293 295 294 294 293
308 307 308 307 308 308 308 308 298 297 295 293 293 297 306 300 295 293 291 291 291 291 300 302 301 299 298 298 298 298 298 294 293 292 291 291 290 292 292 293 294 293 294
309 311 308 304 308 308 308 307 306 305 295 294 292 292 291 293 292 291 291 291 291 291 302 303 301 299 298 298 298 298 297 293 293 292 291 291 291 291 291 291 292 293 294
310 300 308 308 309 308 307 307 307 306 306 307 298 297 293 291 291 291 291 292 303 297 302 301 300 299 299 299 298 297 296 293 292 291 291 291 291 291 291 292 294 293 293
309 309 310 309 309 305 308 307 307 307 307 307 307 301 299 293 292 291 292 306 303 302 300 300 300 299 299 299 299 298 294 292 291 291 291 291 292 292 292 293 294 291 291
309 303 302 309 308 307 307 307 306 307 307 306 306 306 306 304 305 304 305 304 301 300 302 300 300 300 299 300 299 297 293 292 291 291 291 292 294 294 293 293 293 292 293
309 311 305 308 308 307 307 307 307 307 306 306 306 302 285 303 304 304 304 303 302 302 301 301 301 299 300 300 299 296 293 292 291 291 291 291 292 294 295 295 295 294 294
310 310 309 308 307 307 307 308 308 307 306 305 305 303 291 304 304 303 303 302 302 301 301 301 300 300 300 299 298 294 291 291 290 290 289 290 293 294 295 295 296 297 297
309 309 308 308 309 302 308 308 307 306 303 303 303 303 303 304 304 302 303 303 302 302 301 302 301 300 301 300 298 293 290 289 289 288 288 290 292 295 296 296 296 298 301
308 308 308 309 307 308 307 306 304 298 300 302 302 302 303 303 303 303 302 301 302 301 302 300 301 300 301 299 295 292 290 288 287 289 290 291 295 300 300 300 302 303 303
308 310 311 309 308 307 305 302 301 301 301 300 300 300 301 301 301 301 301 300 301 300 300 301 301 300 299 297 292 289 287 285 287 286 291 296 299 303 305 303 304 303 303
311 311 308 308 306 303 301 300 300 300 299 299 299 299 299 299 299 298 299 301 301 299 301 301 300 301 300 294 289 285 285 285 287 285 294 306 306 305 305 303 303 301 301
Wind_Speed
6 5 6 5 3 6 6 7 8 8 9 9 8 7 8 8 9 8 7 8 9 9 9 9 10 9 9 8 7 7 7 8 10 10 10 11 11 11 11 10 9 9 8
4 4 5 5 5 6 6 6 7 8 8 8 7 7 8 7 6 7 7 7 9 9 10 10 10 9 10 8 10 8 5 7 8 11 9 8 6 8 8 11 9 9 10
2 3 3 5 5 5 5 5 6 7 8 9 7 8 7 7 6 6 7 8 10 9 9 10 11 11 10 11 11 10 10 7 9 9 9 8 8 4 10 10 8 8 9
3 2 4 4 4 5 5 4 5 5 7 9 8 7 8 9 10 12 11 10 10 10 10 10 10 12 12 12 12 13 10 12 9 7 7 9 7 7 7 10 11 6 6
5 2 2 3 3 5 6 5 4 4 6 7 8 7 7 7 9 11 11 11 10 11 11 11 12 8 13 11 10 12 13 12 13 11 9 9 8 9 8 6 12 11 8
5 2 1 2 3 5 5 6 4 4 5 6 8 8 8 7 10 12 11 9 10 11 11 12 13 10 13 16 15 17 15 13 13 12 12 12 12 12 10 8 10 12 12
5 2 2 4 4 5 4 6 6 5 4 5 6 6 7 8 11 12 13 8 9 9 11 11 13 12 13 17 19 18 13 9 13 8 13 13 14 11 12 10 13 14 14
5 1 3 4 4 3 4 5 5 4 4 5 5 5 6 7 9 11 15 8 10 9 9 10 12 14 13 15 17 16 15 14 9 10 12 14 14 14 14 13 15 16 12
5 1 2 3 2 5 5 5 5 5 4 3 3 4 6 6 6 9 13 11 10 10 8 10 8 13 12 13 16 17 16 14 10 9 12 14 13 12 10 10 9 10 10
5 4 1 4 4 5 5 4 4 3 4 3 2 3 1 6 6 6 9 10 10 10 9 9 8 11 11 12 14 15 17 16 17 16 13 8 5 5 9 7 6 7 8
5 3 3 3 2 1 1 1 2 3 4 3 4 5 6 4 4 1 5 9 8 10 9 9 9 11 11 13 12 13 15 14 16 14 9 9 10 9 6 6 8 7 6
5 5 5 4 3 2 4 4 4 4 5 4 4 7 3 3 7 6 5 7 7 9 11 9 10 10 13 17 12 9 14 15 10 12 9 9 10 10 9 9 9 8 9
6 5 5 4 4 4 5 5 6 5 6 6 5 5 5 4 5 13 12 11 11 8 9 9 12 15 17 13 7 11 13 11 12 12 11 8 7 10 9 8 8 7 10
6 5 4 5 3 4 5 4 5 5 5 6 7 6 6 6 5 6 8 7 7 8 7 11 11 12 15 10 12 11 11 11 12 10 9 8 7 7 7 6 6 7 7
5 4 5 6 5 4 5 5 6 6 5 7 8 8 8 8 5 6 5 8 9 9 11 11 11 11 9 12 14 12 11 14 10 9 9 8 7 6 7 6 6 6 6
6 6 2 5 3 4 5 5 10 11 9 9 12 9 9 9 8 5 6 7 12 11 8 8 9 9 10 10 12 12 11 12 8 8 7 7 6 7 7 7 5 6 6
5 3 5 5 5 4 5 6 7 4 15 14 13 12 13 16 11 13 7 13 13 5 5 11 10 9 10 10 12 12 13 8 9 6 6 6 6 6 7 6 5 6 6
5 1 7 6 5 6 5 6 6 5 7 8 7 14 12 9 9 6 10 9 8 2 10 10 11 7 8 11 11 12 12 8 7 7 7 6 6 5 6 7 7 6 6
6 6 5 5 6 5 7 6 6 6 7 9 8 1 8 8 8 9 2 8 9 8 8 9 8 9 9 11 12 11 9 9 8 7 7 7 6 5 6 6 6 6 6
6 6 6 7 7 6 6 6 6 7 8 9 9 10 10 11 7 6 4 7 7 8 8 9 8 9 11 12 12 11 8 9 9 7 7 8 7 6 5 6 5 6 6
5 4 6 8 7 5 5 6 7 8 8 8 8 8 2 8 8 8 10 9 8 9 10 9 10 11 11 12 12 12 10 9 8 8 7 7 8 6 6 6 6 5 6
5 6 5 5 5 5 6 6 7 8 9 8 8 6 3 6 8 8 9 9 9 6 7 10 10 11 11 12 12 10 10 10 9 8 8 7 7 6 6 6 6 5 4
5 6 5 4 3 2 3 6 7 9 9 8 8 7 7 8 9 9 7 6 8 8 8 8 10 11 12 12 11 8 8 8 8 7 8 8 7 6 6 5 4 4 4
5 4 4 3 5 5 7 7 7 6 7 7 7 7 8 9 8 8 7 7 6 8 8 9 10 14 12 13 10 8 6 8 8 7 9 7 7 8 3 5 4 5 4
3 2 1 3 5 6 5 6 6 6 6 7 7 7 7 7 8 8 8 7 7 8 10 11 11 15 17 19 15 16 14 12 10 9 6 7 7 8 7 5 5 6 10
2 4 4 5 6 6 6 5 6 6 7 6 6 6 7 6 8 7 7 8 8 9 11 10 13 18 20 13 15 16 14 13 11 11 8 6 7 7 7 9 11 8 10
Wind_Direction
53 38 46 58 65 29 33 35 32 35 26 27 25 20 17 21 32 33 35 31 30 24 15 11 13 7 355 359 333 353 327 344 322 342 326 356 327 339 333 327 314 314 301
60 45 60 51 25 35 35 37 39 38 31 23 17 16 17 13 16 18 14 14 12 5 1 356 360 356 346 4 337 359 341 314 320 315 332 311 338 319 329 317 316 318 325
94 103 73 53 43 39 36 34 40 31 32 26 16 22 16 16 12 11 4 358 355 357 359 348 346 346 343 345 333 337 332 331 320 309 311 313 324 324 309 307 319 343 347
142 100 69 41 4 4 349 347 13 20 22 24 21 24 20 33 19 1 358 352 352 353 351 342 347 358 355 344 334 327 332 323 294 292 299 301 296 343 341 330 318 339 337
153 143 59 2 351 1 360 343 343 355 24 19 20 23 20 40 25 354 347 347 351 346 348 352 1 1 359 342 332 338 321 324 318 310 304 309 310 335 318 325 314 324 326
169 149 299 320 341 358 5 8 348 2 28 16 24 29 30 40 10 0 346 332 352 5 358 356 340 2 354 350 334 315 295 304 311 312 307 312 316 318 326 329 316 309 316
171 159 320 318 322 332 347 6 19 15 27 22 23 23 20 30 14 354 343 347 360 6 0 359 346 358 4 343 336 314 322 295 236 312 302 310 315 312 322 317 309 311 307
169 153 310 321 330 314 1 20 21 37 29 19 16 13 8 55 22 353 332 342 19 360 355 1 353 352 12 342 329 331 332 328 344 331 318 314 317 322 308 305 305 291 294
161 115 357 24 58 66 51 38 35 21 14 9 13 3 10 4 43 4 338 325 15 341 351 12 353 354 1 334 328 332 329 328 335 296 254 263 256 251 270 308 319 313 309
159 120 115 102 86 77 57 51 47 11 51 338 351 358 31 330 80 10 344 325 358 335 348 2 113 16 346 331 334 332 337 330 324 315 304 350 298 301 212 287 309 298 298
168 162 174 159 139 90 326 345 359 354 340 343 332 321 297 315 332 25 332 309 347 328 334 346 3 26 325 300 294 333 325 309 306 292 348 336 331 319 323 331 317 300 297
182 193 205 221 252 258 277 286 281 282 276 296 280 278 324 286 220 184 238 264 311 308 318 343 342 326 289 283 287 316 279 279 325 330 343 334 337 322 331 331 302 292 291
188 208 231 248 256 260 272 288 276 242 264 287 309 317 321 344 306 192 208 223 231 265 313 323 274 268 266 289 293 274 274 357 346 338 339 340 319 309 313 307 301 283 298
194 211 219 243 284 261 292 278 287 292 299 303 308 310 318 315 311 360 340 312 258 274 7 316 307 287 294 313 342 347 359 15 356 337 323 320 311 309 309 312 312 314 314
193 206 231 234 235 276 257 307 309 298 312 316 319 323 314 311 13 46 356 324 328 332 320 306 329 344 334 343 340 343 10 6 344 337 327 325 317 309 319 326 314 316 300
203 212 238 285 261 275 299 305 214 241 258 246 258 257 293 293 331 314 251 249 262 265 284 327 320 344 341 341 336 336 14 356 335 325 321 316 314 315 328 320 322 305 300
235 274 253 244 263 293 307 308 310 251 231 236 236 232 224 268 289 300 323 287 275 240 297 338 329 346 343 341 327 346 16 342 327 320 315 318 318 319 322 319 311 315 317
227 149 273 265 287 288 316 315 303 310 326 323 228 228 214 227 248 259 260 281 325 257 348 351 340 339 347 324 342 353 12 335 328 317 317 317 314 312 314 326 334 332 336
231 247 239 271 277 312 286 302 302 324 328 325 330 229 180 209 207 226 233 317 337 3 329 6 348 352 329 327 350 355 9 332 320 323 323 316 309 308 317 326 322 319 319
232 253 279 290 289 300 314 312 326 333 328 340 341 27 355 322 1 334 9 358 24 347 5 10 344 333 322 350 349 358 350 329 324 319 318 320 317 318 323 317 322 333 335
240 232 218 273 275 331 318 326 332 332 344 351 354 65 355 310 348 360 355 22 16 356 12 348 348 341 345 352 347 13 334 322 318 319 317 314 313 316 325 328 334 312 315
245 270 285 294 323 326 0 327 349 350 356 355 359 39 295 327 7 13 24 24 17 6 358 359 339 347 351 353 6 350 328 321 320 324 315 313 311 303 308 313 323 331 331
253 265 275 295 343 325 311 1 18 0 353 8 3 4 2 3 22 20 28 15 4 6 8 344 347 353 358 356 7 343 326 321 318 311 304 309 305 312 321 324 316 315 311
240 264 303 360 28 1 11 16 15 37 5 12 14 7 27 9 348 31 21 34 347 5 1 356 358 358 356 7 349 340 331 325 311 303 309 298 308 330 322 314 315 309 316
291 341 5 42 24 22 27 24 24 19 20 18 13 9 27 24 342 34 19 8 11 1 5 357 3 355 9 0 353 346 337 325 320 310 310 309 316 328 331 315 354 13 25
141 85 63 48 40 33 33 31 28 21 22 21 15 18 22 30 45 13 6 12 360 360 3 0 4 2 13 1 349 336 334 332 333 326 317 322 350 16 358 30 27 31 40